#timestamp,LO_Frequency,Hit,Temp,Hum 
1478102415.3,286046959.0,N,0.0,0.0
1478102435.1,286046959.3,N,0.0,0.0
1478102436.0,286046959.3,N,0.0,0.0
1478102455.8,286046959.4,N,0.0,0.0
1478102475.7,286046956.6,N,0.0,0.0
1478102495.5,286046957.0,N,0.0,0.0
1478102515.3,286046956.5,N,0.0,0.0
1478102535.2,286046959.4,N,0.0,0.0
1478102555.0,286046957.0,N,0.0,0.0
1478102555.9,286046957.0,N,0.0,0.0
1478102575.7,286046957.2,N,0.0,0.0
1478102595.6,286046957.0,N,0.0,0.0
1478102615.4,286046957.5,N,0.0,0.0
1478102635.3,286046957.5,N,0.0,0.0
1478102655.1,286046957.5,N,0.0,0.0
1478102656.0,286046957.5,N,0.0,0.0
1478102675.8,286046957.5,N,0.0,0.0
1478102695.7,286046957.5,N,0.0,0.0
1478102715.5,286046955.1,N,0.0,0.0
1478102735.3,286046955.5,N,0.0,0.0
1478102755.2,286046953.8,N,0.0,0.0
1478102775.9,286046956.3,N,0.0,0.0
1478102795.7,286046955.5,N,0.0,0.0
1478102815.6,286046955.3,N,0.0,0.0
1478102835.4,286046955.1,N,0.0,0.0
1478102855.2,286046954.9,N,0.0,0.0
1478102875.1,286046957.3,N,0.0,0.0
1478102876.0,286046957.3,N,0.0,0.0
1478102895.8,286046957.3,N,0.0,0.0
1478102915.7,286046955.4,N,0.0,0.0
1478102935.5,286046956.6,N,0.0,0.0
1478102955.3,286046957.8,N,0.0,0.0
1478102975.2,286046958.9,N,0.0,0.0
1478102995.9,286046959.4,N,0.0,0.0
1478103015.7,286046957.4,N,0.0,0.0
1478103035.6,286046958.6,N,0.0,0.0
1478103055.4,286046957.2,N,0.0,0.0
1478103075.2,286046957.4,N,0.0,0.0
1478103095.1,286046957.1,N,0.0,0.0
1478103096.0,286046957.1,N,0.0,0.0
1478103115.8,286046959.2,N,0.0,0.0
1478103135.6,286046958.9,N,0.0,0.0
1478103155.5,286046956.8,N,0.0,0.0
1478103175.3,286046957.9,N,0.0,0.0
1478103195.1,286046957.3,N,0.0,0.0
1478103215.9,286046956.7,N,0.0,0.0
1478103235.7,286046957.3,N,0.0,0.0
1478103255.6,286046959.5,N,0.0,0.0
1478103275.4,286046958.6,N,0.0,0.0
1478103295.2,286046962.2,N,0.0,0.0
1478103315.1,286046958.5,N,0.0,0.0
1478103316.0,286046958.5,N,0.0,0.0
1478103335.8,286046962.8,N,0.0,0.0
1478103355.1,286046958.8,N,0.0,0.0
1478103375.9,286046961.2,N,0.0,0.0
1478103395.7,286046962.5,N,0.0,0.0
1478103415.5,286046961.7,N,0.0,0.0
1478103435.4,286046963.8,N,0.0,0.0
1478103455.2,286046964.1,N,0.0,0.0
1478103475.1,286046962.3,N,0.0,0.0
1478103476.0,286046962.3,N,0.0,0.0
1478103495.8,286046960.2,N,0.0,0.0
1478103515.6,286046960.2,N,0.0,0.0
1478103535.5,286046960.7,N,0.0,0.0
1478103555.3,286046962.1,N,0.0,0.0
1478103575.1,286046962.5,N,0.0,0.0
1478103595.9,286046961.3,N,0.0,0.0
1478103615.7,286046963.5,N,0.0,0.0
1478103635.5,286046963.3,N,0.0,0.0
1478103655.4,286046964.7,N,0.0,0.0
1478103675.2,286046967.2,N,0.0,0.0
1478103695.0,286046968.4,N,0.0,0.0
1478103695.9,286046968.4,N,0.0,0.0
1478103715.8,286046969.1,N,0.0,0.0
1478103735.6,286046970.7,N,0.0,0.0
1478103755.4,286046970.0,N,0.0,0.0
1478103775.3,286046969.9,N,0.0,0.0
1478103795.1,286046969.6,N,0.0,0.0
1478103815.9,286046972.4,N,0.0,0.0
1478103835.7,286046972.0,N,0.0,0.0
1478103855.5,286046969.6,N,0.0,0.0
1478103875.4,286046969.8,N,0.0,0.0
1478103895.2,286046970.8,N,0.0,0.0
1478103915.0,286046968.1,N,0.0,0.0
1478103915.9,286046968.1,N,0.0,0.0
1478103935.8,286046967.7,N,0.0,0.0
1478103955.6,286046971.6,N,0.0,0.0
1478103975.4,286046970.1,N,0.0,0.0
1478103995.3,286046968.4,N,0.0,0.0
1478104015.1,286046967.9,N,0.0,0.0
1478104035.8,286046966.8,N,0.0,0.0
1478104055.7,286046967.5,N,0.0,0.0
1478104075.5,286046964.7,N,0.0,0.0
1478104095.3,286046967.6,N,0.0,0.0
1478104115.2,286046967.3,N,0.0,0.0
1478104135.0,286046966.5,N,0.0,0.0
1478104135.9,286046966.5,N,0.0,0.0
1478104155.7,286046966.4,N,0.0,0.0
1478104175.6,286046966.5,N,0.0,0.0
1478104195.4,286046966.7,N,0.0,0.0
1478104215.3,286046967.3,N,0.0,0.0
1478104235.1,286046965.0,N,0.0,0.0
1478104236.0,286046965.0,N,0.0,0.0
1478104255.8,286046965.2,N,0.0,0.0
1478104275.7,286046965.1,N,0.0,0.0
1478104295.5,286046967.5,N,0.0,0.0
1478104315.3,286046966.7,N,0.0,0.0
1478104335.2,286046968.1,N,0.0,0.0
1478104355.9,286046967.8,N,0.0,0.0
1478104375.7,286046968.4,N,0.0,0.0
1478104395.6,286046968.4,N,0.0,0.0
1478104415.4,286046968.8,N,0.0,0.0
1478104435.2,286046966.2,N,0.0,0.0
1478104455.1,286046966.9,N,0.0,0.0
1478104456.0,286046966.9,N,0.0,0.0
1478104475.8,286046969.0,N,0.0,0.0
1478104495.6,286046966.4,N,0.0,0.0
1478104515.5,286046966.3,N,0.0,0.0
1478104535.3,286046966.1,N,0.0,0.0
1478104555.1,286046968.8,N,0.0,0.0
1478104575.9,286046968.6,N,0.0,0.0
1478104595.7,286046969.1,N,0.0,0.0
1478104615.6,286046969.0,N,0.0,0.0
1478104635.4,286046969.0,N,0.0,0.0
1478104655.2,286046969.0,N,0.0,0.0
1478104675.1,286046969.1,N,0.0,0.0
1478104676.0,286046969.1,N,0.0,0.0
1478104695.8,286046968.8,N,0.0,0.0
1478104715.6,286046967.9,N,0.0,0.0
1478104735.5,286046969.2,N,0.0,0.0
1478104755.3,286046970.8,N,0.0,0.0
1478104775.1,286046970.8,N,0.0,0.0
1478104795.9,286046970.8,N,0.0,0.0
1478104815.7,286046968.2,N,0.0,0.0
1478104835.5,286046969.2,N,0.0,0.0
1478104855.4,286046966.5,N,0.0,0.0
1478104875.2,286046967.2,N,0.0,0.0
1478104895.0,286046970.7,N,0.0,0.0
1478104895.9,286046970.7,N,0.0,0.0
1478104915.8,286046969.0,N,0.0,0.0
1478104935.6,286046968.8,N,0.0,0.0
1478104955.4,286046968.1,N,0.0,0.0
1478104975.3,286046968.4,N,0.0,0.0
1478104995.1,286046966.7,N,0.0,0.0
1478105015.9,286046967.7,N,0.0,0.0
1478105035.7,286046968.0,N,0.0,0.0
1478105055.5,286046968.3,N,0.0,0.0
1478105075.4,286046968.7,N,0.0,0.0
1478105095.2,286046968.2,N,0.0,0.0
1478105115.0,286046967.8,N,0.0,0.0
1478105115.9,286046967.8,N,0.0,0.0
1478105135.8,286046966.6,N,0.0,0.0
1478105155.6,286046965.0,N,0.0,0.0
1478105175.4,286046967.1,N,0.0,0.0
1478105195.3,286046967.7,N,0.0,0.0
1478105215.1,286046970.3,N,0.0,0.0
1478105235.8,286046973.5,N,0.0,0.0
1478105255.7,286046973.1,N,0.0,0.0
1478105275.5,286046973.3,N,0.0,0.0
1478105295.3,286046978.2,N,0.0,0.0
1478105315.2,286046976.1,N,0.0,0.0
1478105335.0,286046975.1,N,0.0,0.0
1478105335.9,286046975.1,N,0.0,0.0
1478105355.8,286046976.5,N,0.0,0.0
1478105375.6,286046980.2,N,0.0,0.0
1478105395.4,286046978.5,N,0.0,0.0
1478105415.3,286046978.6,N,0.0,0.0
1478105435.1,286046980.0,N,0.0,0.0
1478105436.0,286046980.0,N,0.0,0.0
1478105455.8,286046980.2,N,0.0,0.0
1478105475.7,286046978.9,N,0.0,0.0
1478105495.5,286046979.9,N,0.0,0.0
1478105515.3,286046985.2,N,0.0,0.0
1478105535.2,286046981.0,N,0.0,0.0
1478105555.0,286046979.2,N,0.0,0.0
1478105555.9,286046979.2,N,0.0,0.0
1478105575.7,286046981.3,N,0.0,0.0
1478105595.6,286046980.8,N,0.0,0.0
1478105615.4,286046983.3,N,0.0,0.0
1478105635.2,286046982.7,N,0.0,0.0
1478105655.1,286046982.9,N,0.0,0.0
1478105656.0,286046982.9,N,0.0,0.0
1478105675.8,286046982.8,N,0.0,0.0
1478105695.7,286046982.1,N,0.0,0.0
1478105715.5,286046982.5,N,0.0,0.0
1478105735.3,286046999.4,N,0.0,0.0
1478105755.2,286047001.6,N,0.0,0.0
1478105775.9,286046982.8,N,0.0,0.0
1478105795.7,286046982.4,N,0.0,0.0
1478105815.6,286046985.0,N,0.0,0.0
1478105835.4,286046984.8,N,0.0,0.0
1478105855.2,286046983.8,N,0.0,0.0
1478105875.1,286046980.2,N,0.0,0.0
1478105876.0,286046980.2,N,0.0,0.0
1478105895.8,286046980.8,N,0.0,0.0
1478105915.6,286046980.9,N,0.0,0.0
1478105935.5,286046976.6,N,0.0,0.0
1478105955.3,286046981.1,N,0.0,0.0
1478105975.2,286046984.9,N,0.0,0.0
1478105995.9,286046981.2,N,0.0,0.0
